Other Public Products
Issued by NWS Grand Forks, ND

Home | Current Version | Previous Version | Graphics & Text | Print | Product List | Glossary On
Versions: 1 2 3 4 5 6 7 8 9 10 11 12 13 14 15 16 17 18 19 20 21 22 23 24 25 26 27 28 29 30 31 32 33 34 35 36 37 38 39 40 41 42 43 44 45 46 47 48 49 50
000
FPUS83 KFGF 250231
OPUFGF
PRAIRIE TO PINES WEATHER ROUNDUP
NATIONAL WEATHER SERVICE EASTERN NORTH DAKOTA/GRAND FORKS ND
900 PM CDT FRI OCT 24 2014

 **SATELLITE DATA USED TO AUGMENT SKY COVER AT AUTOMATED STATIONS**
 *****  WEATHER ACROSS EASTERN NORTH DAKOTA  *****

CITY           SKY/WX    TMP DP  RH WIND       PRES   REMARKS
GRAND FORKS    PTCLDY    54  34  46 W9        29.84R
GRAND FORKS AF PTCLDY    55  34  46 NW10      29.86R
GRAND CITY NWS   N/A     50 N/A N/A W9          N/A
BUXTON         NOT AVBL
DEVILS LAKE    CLEAR     50  34  53 W13       29.89R
FARGO          CLEAR     58  34  40 W10       29.88R
WAHPETON ARPT  MOCLDY    61  32  33 NW10      29.91R
$$

 *****  WEATHER ACROSS CENTRAL AND WESTERN NORTH DAKOTA  *****

CITY           SKY/WX    TMP DP  RH WIND       PRES   REMARKS
JAMESTOWN      PTCLDY    53  34  48 W14       29.94R
BISMARCK       PTCLDY    51  32  48 W8        30.01R
MINOT          CLEAR     53  28  38 W14       29.95R
MINOT AFB      CLEAR     47  31  54 W10       29.94R
GARRISON         N/A     52  30  43 W10       29.99R
WILLISTON      CLEAR     44  27  51 W8        30.01R
DICKINSON      MOCLDY    42  30  62 W8        30.04R
HETTINGER      MOCLDY    50  34  54 NW7       30.06R
$$

 *****  OTHER OBSERVATIONS NORTHEAST NORTH DAKOTA  *****

CITY           SKY/WX    TMP DP  RH WIND       PRES   REMARKS
WALHALLA       FAIR      54  34  47 W10G16    29.82R
LANGDON        FAIR      48  32  53 W16       29.85S
CAVALIER       FAIR      55  34  44 W14G21    29.82R
GRAFTON        FAIR      54  36  50 W15       29.84R
CANDO          FAIR      45  32  61 W10       29.90R
FORT TOTTEN    NOT AVBL
ROLLA          FAIR      52  30  43 W15G23    29.90R
RUGBY          FAIR      43  34  70 W10       29.92R
 ***** THE ABOVE OBSERVATIONS ARE NON NWS ARE NOT QUALITY
        CONTROLLED AND MAY MIS-REPORT RAIN FOR SNOW...
$$

 *****  OTHER OBSERVATIONS SOUTHEAST NORTH DAKOTA *****

CITY           SKY/WX    TMP DP  RH WIND       PRES   REMARKS
COOPERSTOWN    NOT AVBL
VALLEY CITY    FAIR      52  32  46 W13       29.93R
OAKES            N/A     54  39  58 W8        29.96R
GWINNER        CLOUDY    59  36  41 W10       29.95R
BUFFALO          N/A     54  26  34 W13         N/A
WYNDMERE         N/A     61  36  39 NW10        N/A
 ***** THE ABOVE OBSERVATIONS ARE NON NWS ARE NOT QUALITY
       CONTROLLED AND MAY MIS-REPORT RAIN FOR SNOW...
$$

  *****  WEATHER ACROSS NORTHERN MINNESOTA  *****

CITY           SKY/WX    TMP DP  RH WIND       PRES   REMARKS
FLAG ISLAND    CLEAR     57  36  44 W13       29.69S
WARROAD        CLEAR     54  39  58 W9        29.76R
ROSEAU         CLEAR     55  37  50 W9        29.77R
HALLOCK        PTCLDY    48  36  61 W10       29.81R
THF RVR FALLS  MOCLDY    55  34  44 W14       29.84R
HALSTAD          N/A     51  25  36 W12         N/A
FOSSTON        PTCLDY    55  32  41 W12G18    29.86R
BAUDETTE       CLEAR     58  36  43 W8        29.72R
WASKISH        PTCLDY    55  41  58 W12G18    29.77R
CROOKSTON      PTCLDY    50  34  53 W7        29.86R
$$
  *****  WEATHER ACROSS CENTRAL AND WEST MINNESOTA  *****

CITY           SKY/WX    TMP DP  RH WIND       PRES   REMARKS
BEMIDJI        MOCLDY    60  32  35 W18G26    29.80R
PARK RAPIDS    MOCLDY    59  38  45 NW15      29.83R
WADENA         PTCLDY    61  41  48 NW12G17   29.86R
DETROIT LAKES  CLEAR     59  34  38 NW13      29.89R
MOORHEAD       CLEAR     63  23  22 W8        29.90R
FERGUS FALLS   PTCLDY    63  28  27 NW17      29.90R
ELBOW LAKE     FAIR      61  37  40 NW13      29.89R
MORRIS MN      PTCLDY    57  43  58 NW10      29.90R
STAPLES        MOCLDY    61  39  44 W13G18    29.84R
WHEATON        PTCLDY    59  39  47 W8        29.93R
$$
  *****  WEATHER ELSEWHERE ACROSS MINNESOTA  *****

CITY           SKY/WX    TMP DP  RH WIND       PRES   REMARKS
DULUTH         PTCLDY    59  49  69 SW15      29.75F
INTRNTL FALLS  PTCLDY    61  33  35 W17G29    29.69R
ELY            PTCLDY    59  39  47 SW9       29.69R
CLOQUET        MOCLDY    55  48  76 SW7       29.76F
BRAINERD       CLOUDY    56  41  57 SW9       29.82R
HIBBING        PTCLDY    49  40  71 CALM      29.74S
ALEXANDRIA     CLEAR     63  42  46 W14G22    29.89R
SAINT CLOUD    MOCLDY    59  43  55 SW3       29.83S
MINNEAPOLIS    MOCLDY    62  52  69 SW7       29.85S
$$

  *****  WEATHER ACROSS SOUTH DAKOTA  *****

CITY           SKY/WX    TMP DP  RH WIND       PRES   REMARKS
SIOUX FALLS    PTCLDY    58  43  57 SW6       29.96R
BROOKINGS      NOT AVBL
WATERTOWN      CLEAR     59  39  47 NW7       29.95R
HURON          PTCLDY    51  37  58 NW8       29.95S
SISSETON         N/A     62  39  42 NW13      29.92R
ABERDEEN       CLOUDY    64  39  39 NW14      29.97R
MITCHELL       CLEAR     60  40  47 W7        29.97R
PIERRE         PTCLDY    58  40  51 N7        29.98R
MOBRIDGE       CLOUDY    61  36  39 NW6       30.01R
RAPID CITY     CLEAR     52  35  52 N10       30.09R
$$

  *****  SOME WEATHER IN NEARBY STATES *****

CITY           SKY/WX    TMP DP  RH WIND       PRES   REMARKS
GLASGOW MT     CLEAR     45  28  51 SW9       30.04R
GREAT FALLS MT CLOUDY    47  37  68 SW6       30.07R
CHEYENNE WY    CLEAR     57  28  33 SW8       30.23R
SCOTTSBLUFF NE CLEAR     54  32  43 E3        30.08R
OMAHA NE       PTCLDY    60  56  86 CALM      29.97R
DES MOINES IA  MOCLDY    59  57  93 S5        29.95R FOG
DAVENPORT IA   CLOUDY    57  55  93 W6        29.96S FOG
CHICAGO IL     MOCLDY    60  45  57 S8        29.94F
EAU CLAIRE WI  CLOUDY    53  52  96 S5        29.86S FOG
LA CROSSE WI   CLOUDY    58  55  90 S8        29.89F
$$

  *****  SOME NATIONAL WEATHER *****

CITY           SKY/WX    TMP DP  RH WIND       PRES   REMARKS
LA GUARDIA NY  MOCLDY    57  46  66 SW3       29.82R
RALEIGH NC     PTCLDY    50  47  89 CALM      30.00R
ATLANTA GA     PTCLDY    60  43  53 NW5       30.04R
NEW ORLEANS LA CLEAR     68  50  52 N6        30.09R
OKLAHOMA CITY  PTCLDY    69  60  73 S7        30.04S
ALBUQUERQUE NM CLEAR     67  34  29 S6        30.25R
SALT LAKE CITY CLEAR     58  40  51 W3        30.08S
LOS ANGELES CA CLEAR     71  64  78 W7        29.94R
BOISE ID       CLEAR     57  50  77 NW3       29.97S
SEATTLE WA     CLOUDY    54  46  74 N9        29.87S
$$

*** WEATHER ACROSS MANITOBA...SASKATCHEWAN AND ONTARIO ***
                ***ONTARIO***

CITY           SKY/WX    TMP DP  RH WIND       PRES   REMARKS
GERALDTON      MOCLDY    46  45  93 SW8       29.58
THUNDER BAY    CLOUDY    48  46  93 NE2       29.61F
SIOUX LOOKOUT  PTCLDY    57  41  54 W14G26    29.55S
TORONTO        MOCLDY    52  43  71 NW8       29.94S
BIG TROUT LK   LGT RAIN  50  48  93 W8        29.31F
PICKLE LAKE    PTCLDY    54  43  66 SW15G22   29.41F
DRYDEN         CLEAR     57  37  47 W18G29    29.58R
KENORA         CLEAR     55  34  44 W12G28    29.66R
$$
                *** MANITOBA***

CITY           SKY/WX    TMP DP  RH WIND       PRES   REMARKS
BRANDON        PTCLDY    50  32  50 W18G29    29.84R
DAUPHIN        CLEAR     50  32  50 W23G31    29.79R
ISLAND LAKE    LGT RAIN  46  43  87 W22G33    29.41R
PILOT MOUND      N/A     52  32  46 W13G22      N/A
THE PAS        CLOUDY   N/A N/A N/A W16G23      N/A
THOMPSON       LGT RAIN N/A N/A N/A W12         N/A
WINNIPEG       CLEAR     54  34  47 W18G25    29.75R
LYNN LAKE      CLOUDY    36  34  93 W14G26    29.45R
CHURCHILL      FOG       37  37 100 E3        29.38S VSB 1/4
GILLAM         DRZL/FOG  43  41  93 W7        29.37F VSB 1/4
$$
                ***SASKATCHEWAN***

CITY           SKY/WX    TMP DP  RH WIND       PRES   REMARKS
ESTEVAN        PTCLDY    45  30  57 W12       29.96R
KINDERSLEY     MOCLDY    37  27  65 W6        29.97R
LLOYDMINSTER   CLEAR     34  25  69 W10       29.89R
PRINCE ALBERT  PTCLDY    43  30  61 W15       29.82R
REGINA         PTCLDY    39  32  75 W10       29.95R
YORKTON        CLEAR     43  30  61 W9G17     29.86R



USA.gov is the U.S. government's official web portal to all federal, state and local government web resources and services.